Torna al catalogo

FLYING LAPTOP

AttivoScienzaSSO
NORAD 42831·PAYLOAD·🇩🇪 Germany

Lanciato Jul 14, 2017 da Baikonur Cosmodrome

Loading…

Prossimi Passaggi (prossime 24 ore)

TLE

AggiornatoSource: Space-Track

Epoca: Sep 14, 2026, 15:00 UTC

1 42831U 17042G   26257.62553725  .00001957  00000-0  15508-3 0  9993
2 42831  97.5006  49.9555 0016414 174.9593 185.1800 15.01589511499874

Traccia FLYING LAPTOP in tempo reale con AllMySat

Download on the App Store